Regional Weather Roundup
Issued by NWS Bismarck, ND

Home | Current Version | Previous Version | Text Only | Print | Product List | Glossary On
Versions: 1 2 3 4 5 6 7 8 9 10 11 12 13 14 15 16 17 18 19 20 21 22 23 24 25 26 27 28 29 30 31 32 33 34 35 36 37 38 39 40 41 42 43 44 45 46 47 48 49 50
672
ASUS43 KBIS 292002
RWRBIS

NWR BROADCAST TEXT
NATIONAL WEATHER SERVICE BISMARCK ND
300 PM CDT SUN MAY 29 2016

NOTE: "FAIR" INDICATES FEW OR NO CLOUDS BELOW 12,000 FEET WITH NO
SIGNIFICANT WEATHER AND/OR OBSTRUCTIONS TO VISIBILITY.


CITY           SKY/WX    TMP DP  RH WIND       PRES   REMARKS
WILLISTON      SUNNY     76  35  22 W10G18    29.96F
MINOT          MOSUNNY   77  38  24 W14       29.96S
MINOT AFB      SUNNY     73  40  30 W9G18     29.94F
BISMARCK       MOSUNNY   76  43  30 VRB6G17   30.00F
DICKINSON      MOSUNNY   72  38  29 W8        29.97F
GARRISON         N/A     73  40  30 W8G20     29.98F
HETTINGER ARPT MOSUNNY   77  41  27 W9        30.01F
JAMESTOWN      MOSUNNY   73  44  35 W13G25    29.97S
CARRINGTON     FAIR      75  39  27 NW13G20   29.98F
OAKES            N/A    N/A N/A N/A MISG        N/A
STANLEY        FAIR      70  36  28 W7G18     29.99F
$$

CITY           SKY/WX    TMP DP  RH WIND       PRES   REMARKS
GRAND FORKS    MOSUNNY   74  52  46 NW10G20   29.92S
GRAND FORKS AF SUNNY     75  48  38 NW18G25   29.93S
DEVILS LAKE    MOSUNNY   73  41  31 NW18G26   29.95F
FARGO          SUNNY     77  46  33 W17G25    29.94F
GWINNER        FAIR      77  46  33 W15G26    29.99S
LANGDON        FAIR      70  50  49 W15       29.94S
$$

CITY           SKY/WX    TMP DP  RH WIND       PRES   REMARKS
ABERDEEN       MOSUNNY   79  46  31 W8        30.00F
MOBRIDGE       SUNNY     77  50  38 S7        30.00F
BUFFALO          N/A     76  45  33 SE17      29.96F
RAPID CITY     MOSUNNY   74  50  42 SE13      30.04F
GLASGOW        SUNNY     71  36  27 W10       29.95F
SIDNEY         SUNNY     75  37  25 W12       29.96F
WOLF POINT     SUNNY     75  37  25 SW15G21   29.97S
GLENDIVE       SUNNY     75  43  31 W7        30.00F
MILES CITY     SUNNY     75  39  27 VRB3      29.98F
BAKER          SUNNY     76  36  23 VRB6      30.01F
$$

CITY           SKY/WX    TMP DP  RH WIND       PRES   REMARKS
BILLINGS       MOSUNNY   72  39  30 SW6       30.01F
GREAT FALLS    MOSUNNY   70  33  25 SW16      29.96F
$$





USA.gov is the U.S. government's official web portal to all federal, state and local government web resources and services.